Time,TemperatureF,DewpointF,PressureIn,WindDirection,WindDirectionDegrees,WindSpeedMPH,WindSpeedGustMPH,Humidity,HourlyPrecipIn,Conditions,Clouds,dailyrainin,SoftwareType,DateUTC
2013-08-02 00:07:00,79.3,75.1,29.75,SSW,202,4.7,-999.0,87,-99.99,,,0.00,Acu-Link.com,2013-08-02 04:07:00,
2013-08-02 00:24:00,79.3,75.1,29.76,SSE,157,5.8,-999.0,87,-99.99,,,0.00,Acu-Link.com,2013-08-02 04:24:00,
2013-08-02 00:42:00,79.2,75.0,29.76,South,180,3.7,-999.0,87,-99.99,,,0.00,Acu-Link.com,2013-08-02 04:42:00,
2013-08-02 00:58:00,79.2,75.0,29.75,SSW,202,4.7,-999.0,87,-99.99,,,0.00,Acu-Link.com,2013-08-02 04:58:00,
2013-08-02 01:13:00,79.2,75.0,29.74,SW,225,5.3,-999.0,87,-99.99,,,0.00,Acu-Link.com,2013-08-02 05:13:00,
2013-08-02 01:28:00,79.2,75.0,29.74,WSW,247,3.7,-999.0,87,-99.99,,,0.00,Acu-Link.com,2013-08-02 05:28:00,
2013-08-02 01:43:00,79.2,75.0,29.74,SE,135,6.8,-999.0,87,-99.99,,,0.00,Acu-Link.com,2013-08-02 05:43:00,
2013-08-02 01:59:00,79.2,75.0,29.72,SW,225,4.2,-999.0,87,-99.99,,,0.00,Acu-Link.com,2013-08-02 05:59:00,
2013-08-02 02:14:00,79.2,75.0,29.72,SSE,157,6.3,-999.0,87,-99.99,,,0.00,Acu-Link.com,2013-08-02 06:14:00,
2013-08-02 02:29:00,79.2,75.0,29.71,ESE,112,5.3,-999.0,87,-99.99,,,0.00,Acu-Link.com,2013-08-02 06:29:00,
2013-08-02 02:45:00,79.0,74.8,29.70,SW,225,5.8,-999.0,87,-99.99,,,0.00,Acu-Link.com,2013-08-02 06:45:00,
2013-08-02 03:04:00,79.0,74.8,29.71,SE,135,4.7,-999.0,87,-99.99,,,0.00,Acu-Link.com,2013-08-02 07:04:00,
2013-08-02 03:21:00,78.4,74.2,29.71,SW,225,2.2,-999.0,87,-99.99,,,0.00,Acu-Link.com,2013-08-02 07:21:00,
2013-08-02 05:09:00,77.7,73.5,29.73,West,270,2.7,-999.0,87,-99.99,,,0.00,Acu-Link.com,2013-08-02 09:09:00,
2013-08-02 07:05:00,77.5,73.3,29.78,East,90,2.2,-999.0,87,-99.99,,,0.00,Acu-Link.com,2013-08-02 11:05:00,
2013-08-02 07:21:00,77.5,73.3,29.78,NNE,22,5.3,-999.0,87,-99.99,,,0.00,Acu-Link.com,2013-08-02 11:21:00,
2013-08-02 07:36:00,78.4,74.2,29.79,West,270,3.2,-999.0,87,-99.99,,,0.00,Acu-Link.com,2013-08-02 11:36:00,
2013-08-02 07:52:00,78.8,74.6,29.78,SSW,202,4.7,-999.0,87,-99.99,,,0.00,Acu-Link.com,2013-08-02 11:52:00,
2013-08-02 08:08:00,79.0,74.4,29.78,SSW,202,2.2,-999.0,86,-99.99,,,0.00,Acu-Link.com,2013-08-02 12:08:00,
2013-08-02 08:33:00,80.2,75.3,29.79,SSW,202,1.7,-999.0,85,-99.99,,,0.00,Acu-Link.com,2013-08-02 12:33:00,
2013-08-02 08:48:00,80.4,75.1,29.81,SW,225,2.7,-999.0,84,-99.99,,,0.00,Acu-Link.com,2013-08-02 12:48:00,
2013-08-02 09:03:00,80.8,75.5,29.80,WSW,247,4.2,-999.0,84,-99.99,,,0.00,Acu-Link.com,2013-08-02 13:03:00,
2013-08-02 09:18:00,81.1,75.4,29.80,WSW,247,3.7,-999.0,83,-99.99,,,0.00,Acu-Link.com,2013-08-02 13:18:00,
2013-08-02 09:33:00,81.5,75.8,29.80,South,180,3.7,-999.0,83,-99.99,,,0.00,Acu-Link.com,2013-08-02 13:33:00,
2013-08-02 09:48:00,81.9,76.2,29.82,East,90,2.7,-999.0,83,-99.99,,,0.00,Acu-Link.com,2013-08-02 13:48:00,
2013-08-02 10:03:00,82.2,76.5,29.82,SW,225,3.7,-999.0,83,-99.99,,,0.00,Acu-Link.com,2013-08-02 14:03:00,
2013-08-02 10:18:00,82.9,76.5,29.82,SW,225,4.7,-999.0,81,-99.99,,,0.00,Acu-Link.com,2013-08-02 14:18:00,
2013-08-02 10:33:00,84.0,76.8,29.82,SSW,202,5.3,-999.0,79,-99.99,,,0.00,Acu-Link.com,2013-08-02 14:33:00,
2013-08-02 10:48:00,83.3,76.5,29.80,SSW,202,6.8,-999.0,80,-99.99,,,0.00,Acu-Link.com,2013-08-02 14:48:00,
2013-08-02 11:04:00,83.7,76.9,29.80,SW,225,3.7,-999.0,80,-99.99,,,0.00,Acu-Link.com,2013-08-02 15:04:00,
2013-08-02 11:19:00,83.3,76.5,29.80,SSW,202,7.8,-999.0,80,-99.99,,,0.00,Acu-Link.com,2013-08-02 15:19:00,
2013-08-02 11:34:00,83.8,77.3,29.81,SW,225,4.7,-999.0,81,-99.99,,,0.00,Acu-Link.com,2013-08-02 15:34:00,
2013-08-02 11:49:00,84.2,77.3,29.83,SSW,202,5.3,-999.0,80,-99.99,,,0.00,Acu-Link.com,2013-08-02 15:49:00,
2013-08-02 12:04:00,84.6,76.6,29.82,SSW,202,5.3,-999.0,77,-99.99,,,0.00,Acu-Link.com,2013-08-02 16:04:00,
2013-08-02 12:19:00,82.9,76.1,29.83,West,270,5.8,-999.0,80,-99.99,,,0.00,Acu-Link.com,2013-08-02 16:19:00,
2013-08-02 12:35:00,82.2,76.5,29.83,South,180,3.7,-999.0,83,-99.99,,,0.00,Acu-Link.com,2013-08-02 16:35:00,
2013-08-02 12:50:00,82.4,77.1,29.83,South,180,4.7,-999.0,84,-99.99,,,0.00,Acu-Link.com,2013-08-02 16:50:00,
2013-08-02 13:05:00,82.4,77.1,29.82,SSW,202,5.8,-999.0,84,-99.99,,,0.00,Acu-Link.com,2013-08-02 17:05:00,
2013-08-02 13:20:00,83.5,77.4,29.81,SW,225,4.7,-999.0,82,-99.99,,,0.00,Acu-Link.com,2013-08-02 17:20:00,
2013-08-02 13:35:00,84.7,77.4,29.82,SSW,202,5.3,-999.0,79,-99.99,,,0.00,Acu-Link.com,2013-08-02 17:35:00,
2013-08-02 13:50:00,86.4,78.7,29.82,SW,225,4.2,-999.0,78,-99.99,,,0.00,Acu-Link.com,2013-08-02 17:50:00,
2013-08-02 14:05:00,86.4,78.3,29.82,South,180,4.7,-999.0,77,-99.99,,,0.00,Acu-Link.com,2013-08-02 18:05:00,
2013-08-02 14:21:00,86.2,78.1,29.83,WSW,247,6.8,-999.0,77,-99.99,,,0.00,Acu-Link.com,2013-08-02 18:21:00,
2013-08-02 14:36:00,86.7,78.2,29.82,SSW,202,2.7,-999.0,76,-99.99,,,0.00,Acu-Link.com,2013-08-02 18:36:00,
2013-08-02 15:06:00,84.4,77.2,29.81,SSW,202,6.8,-999.0,79,-99.99,,,0.00,Acu-Link.com,2013-08-02 19:06:00,
2013-08-02 15:21:00,84.2,77.0,29.81,WSW,247,4.7,-999.0,79,-99.99,,,0.00,Acu-Link.com,2013-08-02 19:21:00,
2013-08-02 15:36:00,84.7,77.4,29.80,South,180,6.3,-999.0,79,-99.99,,,0.00,Acu-Link.com,2013-08-02 19:36:00,
2013-08-02 15:51:00,85.5,78.2,29.79,ESE,112,3.7,-999.0,79,-99.99,,,0.00,Acu-Link.com,2013-08-02 19:51:00,
2013-08-02 16:22:00,84.0,77.5,29.80,SE,135,2.7,-999.0,81,-99.99,,,0.00,Acu-Link.com,2013-08-02 20:22:00,
2013-08-02 16:37:00,84.2,78.1,29.81,SW,225,6.8,-999.0,82,-99.99,,,0.00,Acu-Link.com,2013-08-02 20:37:00,
2013-08-02 16:52:00,84.4,78.3,29.80,SSW,202,6.3,-999.0,82,-99.99,,,0.00,Acu-Link.com,2013-08-02 20:52:00,
2013-08-02 17:07:00,82.8,77.5,29.80,SSW,202,8.3,-999.0,84,-99.99,,,0.00,Acu-Link.com,2013-08-02 21:07:00,
2013-08-02 17:22:00,82.6,77.6,29.79,SW,225,7.8,-999.0,85,-99.99,,,0.00,Acu-Link.com,2013-08-02 21:22:00,
2013-08-02 17:37:00,81.9,77.3,29.79,SSW,202,6.8,-999.0,86,-99.99,,,0.00,Acu-Link.com,2013-08-02 21:37:00,
2013-08-02 17:52:00,81.9,77.3,29.79,WSW,247,4.7,-999.0,86,-99.99,,,0.00,Acu-Link.com,2013-08-02 21:52:00,
2013-08-02 18:07:00,81.9,77.3,29.78,SSW,202,8.9,-999.0,86,-99.99,,,0.00,Acu-Link.com,2013-08-02 22:07:00,
2013-08-02 18:23:00,81.5,76.9,29.78,West,270,11.9,-999.0,86,-99.99,,,0.00,Acu-Link.com,2013-08-02 22:23:00,
2013-08-02 18:38:00,81.3,76.7,29.80,SW,225,6.3,-999.0,86,-99.99,,,0.00,Acu-Link.com,2013-08-02 22:38:00,
2013-08-02 18:53:00,81.3,76.7,29.81,SSW,202,9.4,-999.0,86,-99.99,,,0.00,Acu-Link.com,2013-08-02 22:53:00,
2013-08-02 19:08:00,81.1,76.5,29.81,WSW,247,7.8,-999.0,86,-99.99,,,0.00,Acu-Link.com,2013-08-02 23:08:00,
2013-08-02 19:23:00,81.1,76.5,29.82,SSW,202,9.9,-999.0,86,-99.99,,,0.00,Acu-Link.com,2013-08-02 23:23:00,
2013-08-02 19:38:00,81.0,76.4,29.81,SSW,202,9.9,-999.0,86,-99.99,,,0.00,Acu-Link.com,2013-08-02 23:38:00,
2013-08-02 19:53:00,81.0,76.4,29.82,SSW,202,7.8,-999.0,86,-99.99,,,0.00,Acu-Link.com,2013-08-02 23:53:00,
2013-08-02 20:10:00,81.0,76.4,29.82,SSW,202,4.7,-999.0,86,-99.99,,,0.00,Acu-Link.com,2013-08-03 00:10:00,
2013-08-02 20:25:00,81.0,76.4,29.84,SSE,157,13.5,-999.0,86,-99.99,,,0.00,Acu-Link.com,2013-08-03 00:25:00,
2013-08-02 20:40:00,81.0,76.1,29.82,South,180,5.3,-999.0,85,-99.99,,,0.00,Acu-Link.com,2013-08-03 00:40:00,
2013-08-02 20:55:00,81.0,76.1,29.83,SSE,157,4.2,-999.0,85,-99.99,,,0.00,Acu-Link.com,2013-08-03 00:55:00,
2013-08-02 21:10:00,81.0,76.1,29.83,SW,225,6.3,-999.0,85,-99.99,,,0.00,Acu-Link.com,2013-08-03 01:10:00,
2013-08-02 21:25:00,81.0,76.1,29.84,SW,225,6.3,-999.0,85,-99.99,,,0.00,Acu-Link.com,2013-08-03 01:25:00,
2013-08-02 21:40:00,81.1,76.1,29.84,South,180,7.3,-999.0,85,-99.99,,,0.00,Acu-Link.com,2013-08-03 01:40:00,
2013-08-02 21:55:00,81.1,76.1,29.84,SSW,202,4.2,-999.0,85,-99.99,,,0.00,Acu-Link.com,2013-08-03 01:55:00,
2013-08-02 22:10:00,81.1,76.1,29.85,SSW,202,6.8,-999.0,85,-99.99,,,0.00,Acu-Link.com,2013-08-03 02:10:00,
2013-08-02 22:26:00,81.1,76.1,29.85,WSW,247,5.3,-999.0,85,-99.99,,,0.00,Acu-Link.com,2013-08-03 02:26:00,
2013-08-02 22:41:00,81.0,76.4,29.84,SSW,202,3.2,-999.0,86,-99.99,,,0.00,Acu-Link.com,2013-08-03 02:41:00,
2013-08-02 22:56:00,81.0,76.4,29.84,SW,225,2.7,-999.0,86,-99.99,,,0.00,Acu-Link.com,2013-08-03 02:56:00,
2013-08-02 23:11:00,80.6,76.0,29.84,SW,225,4.2,-999.0,86,-99.99,,,0.00,Acu-Link.com,2013-08-03 03:11:00,
2013-08-02 23:26:00,80.6,76.0,29.84,West,270,3.2,-999.0,86,-99.99,,,0.00,Acu-Link.com,2013-08-03 03:26:00,
2013-08-02 23:56:00,80.4,75.8,29.84,SSW,202,5.8,-999.0,86,-99.99,,,0.00,Acu-Link.com,2013-08-03 03:56:00,